Retour au catalogue

FENGYUN 1C DEB

ActifSSO
NORAD 29813·DEBRIS·🇨🇳 China

Lancé May 10, 1999 depuis Taiyuan Satellite Launch Center

Loading…

Prochains Passages (prochaines 24 heures)

TLE

FraisSource: Space-Track

Époque: Sep 14, 2026, 20:02 UTC

1 29813U 99025DF  26257.83527527 -.00000057  00000-0 -85622-5 0  9991
2 29813  98.7126 273.9639 0012872 159.3132  15.8789 14.09522087 11492

Suivez FENGYUN 1C DEB en temps réel avec AllMySat

Download on the App Store